TimePST,TemperatureF,Dew PointF,Humidity,Sea Level PressureIn,VisibilityMPH,Wind Direction,Wind SpeedMPH,Gust SpeedMPH,PrecipitationIn,Events,Conditions,WindDirDegrees,DateUTC
12:50 AM,22.8,19.8,88,30.41,10.0,NNE,6.9,-,N/A,,Overcast,20,2013-01-22 08:50:00
1:50 AM,22.5,19.4,88,30.41,10.0,North,4.6,-,N/A,,Overcast,360,2013-01-22 09:50:00
2:50 AM,23.0,18.9,84,30.41,10.0,North,4.6,-,N/A,,Overcast,10,2013-01-22 10:50:00
3:50 AM,21.7,19.2,90,30.40,10.0,North,4.6,-,N/A,,Overcast,360,2013-01-22 11:50:00
4:50 AM,21.7,19.4,91,30.39,10.0,NNW,3.5,-,N/A,,Overcast,340,2013-01-22 12:50:00
5:50 AM,21.9,19.9,92,30.38,10.0,North,6.9,-,N/A,,Overcast,350,2013-01-22 13:50:00
6:50 AM,21.9,19.9,92,30.38,8.0,North,4.6,-,N/A,Snow,Light Snow,350,2013-01-22 14:50:00
7:50 AM,21.9,19.9,92,30.38,7.0,West,3.5,-,N/A,Snow,Light Snow,260,2013-01-22 15:50:00
8:50 AM,22.3,20.1,91,30.38,1.5,North,4.6,-,N/A,Snow,Light Snow,350,2013-01-22 16:50:00
9:50 AM,22.5,19.9,90,30.38,2.0,NW,4.6,-,0.01,Snow,Light Snow,310,2013-01-22 17:50:00
10:50 AM,23.4,18.7,82,30.38,8.0,NNW,5.8,-,0.00,Snow,Light Snow,330,2013-01-22 18:50:00
11:50 AM,23.5,19.0,83,30.37,12.0,NW,6.9,-,N/A,Snow,Light Snow,310,2013-01-22 19:50:00
12:50 PM,24.1,19.6,83,30.37,12.0,NW,5.8,-,0.00,,Overcast,320,2013-01-22 20:50:00
1:50 PM,24.1,19.9,84,30.35,12.0,WNW,4.6,-,N/A,,Overcast,300,2013-01-22 21:50:00
2:50 PM,24.1,19.9,84,30.34,12.0,WNW,5.8,-,N/A,,Overcast,290,2013-01-22 22:50:00
3:50 PM,24.1,23.7,99,30.31,12.0,WNW,5.8,-,N/A,,Overcast,290,2013-01-22 23:50:00
4:50 PM,23.9,19.9,85,30.31,12.0,NW,4.6,-,N/A,,Overcast,310,2013-01-23 00:50:00
5:50 PM,23.7,20.3,87,30.29,12.0,WNW,4.6,-,N/A,,Overcast,300,2013-01-23 01:50:00
6:50 PM,23.7,20.1,86,30.29,12.0,West,3.5,-,N/A,,Overcast,280,2013-01-23 02:50:00
10:50 PM,23.7,20.5,87,30.27,12.0,WSW,3.5,-,N/A,,Overcast,250,2013-01-23 06:50:00
11:50 PM,23.7,20.3,87,30.27,12.0,WSW,3.5,-,N/A,,Overcast,240,2013-01-23 07:50:00